This demonstration page uses our WeatherBlox Daily Observations layout. Learn more.

40.92945, -100.16068

Hourly Observations for November 12, 2019

Temp ( °F °C ) Dew Point ( °F °C ) Humidity (%) Winds ( mph kmh ) Pressure ( in mb ) Visibility ( mi km ) Precip ( " mm )
12:15 am 00:15 Clear 1 -17.5 -3 -19.5 85 85 Calm 30.89 1046 10 16.0934 0 0
12:35 am 00:35 Clear 0 -17.8 -3 -19.5 87 87 Calm 30.89 1046 10 16.0934 0 0
12:55 am 00:55 Clear 0 -18 -4 -19.9 85 85 Calm 30.87 1046 10 16.0934 0 0
1:15 am 01:15 Clear 0 -17.9 -3 -19.6 87 87 Calm 30.87 1045 10 16.0934 0 0
1:35 am 01:35 Clear 1 -17.4 -3 -19.2 86 86 Calm 30.86 1045 10 16.0934 0 0
1:55 am 01:55 Clear 1 -17.4 -2 -19 87 87 Calm 30.85 1045 10 16.0934 0 0
2:15 am 02:15 Clear 1 -17 -2 -19 85 85 Calm 30.83 1044 10 16.0934 0 0
2:35 am 02:35 Clear 1 -17.1 -2 -19 85 85 Calm 30.81 1043 10 16.0934 0 0
2:55 am 02:55 Clear 1 -17 -1 -18.5 88 88 Calm 30.8 1043 10 16.0934 0 0
3:15 am 03:15 Clear 1 -17.2 -2 -19 86 86 Calm 30.79 1043 10 16.0934 0 0
3:35 am 03:35 Clear 1 -17.4 -2 -19.1 87 87 S 3 6 30.8 1043 10 16.0934 0 0
3:55 am 03:55 Clear 3 -15.9 0 -18 84 84 Calm 30.77 1042 10 16.0934 0 0
4:15 am 04:15 Clear 4 -15.5 1 -17.5 85 85 Calm 30.75 1041 10 16.0934 0 0
4:35 am 04:35 Clear -1 -18.3 -4 -20.2 85 85 SE 3 6 30.78 1042 10 16.0934 0 0
4:55 am 04:55 Clear 1 -17.5 -3 -19.2 87 87 SSE 3 6 30.75 1041 10 16.0934 0 0
5:15 am 05:15 Clear 5 -15 2 -16.9 86 86 S 5 7 30.72 1040 10 16.0934 0 0
5:35 am 05:35 Clear 5 -14.8 2 -16.7 86 86 S 7 11 30.71 1040 10 16.0934 0 0
5:55 am 05:55 Clear 6 -14.2 3 -16.3 84 84 S 7 11 30.69 1039 10 16.0934 0 0
6:15 am 06:15 Clear 7 -14 3 -16.2 84 84 S 8 13 30.68 1039 10 16.0934 0 0
6:35 am 06:35 Clear 7 -13.8 3 -16.1 83 83 S 5 7 30.66 1038 10 16.0934 0 0
6:55 am 06:55 Clear 7 -13.8 3 -16.1 83 83 SSW 3 6 30.66 1038 10 16.0934 0 0
7:15 am 07:15 Clear 8 -13.5 4 -15.6 84 84 S 7 11 30.63 1037 10 16.0934 0 0
7:35 am 07:35 Sunny 8 -13.3 4 -15.5 84 84 S 7 11 30.61 1037 10 16.0934 0 0
7:55 am 07:55 Sunny 8 -13.6 4 -15.6 85 85 S 8 13 30.61 1037 10 16.0934 0 0
8:15 am 08:15 Sunny 10 -12.2 6 -14.3 85 85 S 8 13 30.58 1035 10 16.0934 0 0
8:35 am 08:35 Sunny 13 -10.7 8 -13.4 81 81 S 7 11 30.56 1035 10 16.0934 0 0
8:55 am 08:55 Sunny 16 -8.7 11 -11.4 81 81 S 7 11 30.54 1034 10 16.0934 0 0
9:15 am 09:15 Sunny 20 -6.9 13 -10.5 76 76 S 9 15 30.51 1033 10 16.0934 0 0
9:35 am 09:35 Sunny 21 -5.9 14 -10.1 73 73 SSW 13 20 30.5 1033 10 16.0934 0 0
9:55 am 09:55 Sunny 22 -5.3 14 -10.1 69 69 S 12 19 30.47 1032 10 16.0934 0 0
10:15 am 10:15 Sunny 23 -5 14 -9.8 69 69 S 12 19 30.46 1031 10 16.0934 0 0
10:35 am 10:35 Sunny 25 -4 15 -9.2 67 67 S 14 22 30.43 1030 10 16.0934 0 0
10:55 am 10:55 Sunny 26 -3.3 16 -8.7 67 67 SSW 16 26 30.4 1030 10 16.0934 0 0
11:15 am 11:15 Sunny 27 -2.7 17 -8.4 65 65 SSW 15 24 30.39 1029 10 16.0934 0 0
11:35 am 11:35 Sunny 28 -2.1 19 -7.5 67 67 S 16 26 30.36 1028 10 16.0934 0 0
11:55 am 11:55 Sunny 30 -1.1 20 -6.8 66 66 SSW 18 30 30.32 1027 10 16.0934 0 0
12:15 pm 12:15 Sunny 32 0 20 -6.5 62 62 SSW 20 31 30.29 1026 10 16.0934 0 0
12:35 pm 12:35 Sunny 35 1.4 22 -5.5 60 60 S 17 28 30.26 1025 10 16.0934 0 0
12:55 pm 12:55 Sunny 37 2.5 22 -5.5 56 56 SSW 20 31 30.23 1024 10 16.0934 0 0
1:15 pm 13:15 Sunny 38 3.2 23 -5.2 54 54 SSW 18 30 30.21 1023 10 16.0934 0 0
1:35 pm 13:35 Sunny 39 3.8 23 -5 53 53 S 18 30 30.19 1022 10 16.0934 0 0
1:55 pm 13:55 Sunny 42 5.3 24 -4.3 50 50 S 17 28 30.16 1021 10 16.0934 0 0
2:15 pm 14:15 Sunny 42 5.7 24 -4.4 49 49 SSW 18 30 30.13 1020 10 16.0934 0 0
2:35 pm 14:35 Sunny 44 6.4 24 -4.5 46 46 SSW 17 28 30.11 1020 10 16.0934 0 0
2:55 pm 14:55 Sunny 43 6.2 24 -4.6 46 46 S 14 22 30.11 1020 10 16.0934 0 0
3:15 pm 15:15 Sunny 46 7.5 24 -4.7 42 42 SSW 13 20 30.08 1019 10 16.0934 0 0
3:35 pm 15:35 Sunny 46 7.9 23 -4.9 40 40 S 16 26 30.07 1018 10 16.0934 0 0
3:55 pm 15:55 Sunny 46 7.7 22 -5.4 39 39 SSW 14 22 30.06 1018 10 16.0934 0 0
4:15 pm 16:15 Sunny 46 7.8 22 -5.4 39 39 SSW 17 28 30.06 1018 10 16.0934 0 0
4:35 pm 16:35 Sunny 45 7.2 21 -5.9 39 39 S 13 20 30.06 1018 10 16.0934 0 0
4:55 pm 16:55 Sunny 44 6.5 21 -6 41 41 S 7 11 30.05 1018 10 16.0934 0 0
5:15 pm 17:15 Sunny 42 5.8 20 -6.7 41 41 S 13 20 30.04 1017 10 16.0934 0 0
5:35 pm 17:35 Clear 41 4.9 19 -7.3 41 41 S 12 19 30.04 1017 10 16.0934 0 0
5:55 pm 17:55 Clear 40 4.6 18 -7.8 41 41 S 12 19 30.04 1017 10 16.0934 0 0
6:15 pm 18:15 Clear 39 4 18 -8 42 42 S 10 17 30.04 1017 10 16.0934 0 0
6:35 pm 18:35 Clear 39 3.8 17 -8.4 41 41 S 12 19 30.04 1017 10 16.0934 0 0
6:55 pm 18:55 Clear 38 3.6 17 -8.5 41 41 S 18 30 30.03 1017 10 16.0934 0 0
7:15 pm 19:15 Clear 38 3.3 17 -8.6 42 42 S 20 31 30.02 1017 10 16.0934 0 0
7:35 pm 19:35 Clear 37 3 16 -8.7 42 42 S 20 31 30.02 1017 10 16.0934 0 0
7:55 pm 19:55 Clear 36 2.4 16 -8.7 44 44 SSW 18 30 30.02 1017 10 16.0934 0 0
8:15 pm 20:15 Clear 35 1.6 16 -8.9 46 46 S 17 28 30.03 1017 10 16.0934 0 0
8:35 pm 20:35 Clear 34 1.2 16 -9 47 47 S 17 28 30.02 1017 10 16.0934 0 0
8:55 pm 20:55 Clear 33 0.7 16 -9 49 49 S 16 26 30.02 1017 10 16.0934 0 0
9:15 pm 21:15 Clear 33 0.5 16 -9 49 49 S 14 22 30.01 1016 10 16.0934 0 0
9:35 pm 21:35 Clear 32 0.2 16 -8.8 51 51 S 8 13 30.01 1016 10 16.0934 0 0
9:55 pm 21:55 Clear 32 0 16 -8.8 52 52 SSE 7 11 30.02 1016 10 16.0934 0 0
10:15 pm 22:15 Clear 32 0 16 -8.7 52 52 SSE 6 9 30.01 1016 10 16.0934 0 0
10:35 pm 22:35 Clear 32 0 17 -8.5 53 53 SSE 6 9 30 1016 10 16.0934 0 0
10:55 pm 22:55 Clear 32 0.1 17 -8.3 54 54 S 6 9 29.99 1015 10 16.0934 0 0
11:15 pm 23:15 Clear 35 1.8 17 -8.3 47 47 SW 9 15 29.97 1015 10 16.0934 0 0
11:35 pm 23:35 Clear 36 2.2 17 -8.1 47 47 SSW 6 9 29.95 1014 10 16.0934 0 0
11:55 pm 23:55 Clear 36 2.4 17 -8.2 46 46 SSW 7 11 29.94 1014 10 16.0934 0 0

Powered by AerisWeather